[[{"header":{"parameterUnit":"m.s-1","parameterCategory":1,"la1":30.2991,"la2":30.254,"lo1":-89.0895,"lo2":-89.0444,"dy":0.0017,"dx":0.0017,"nx":28,"ny":28,"refTime":"2024-02-28T09:00:00:Z","depth":0,"parameterNumber":2,"parameterNumberName":"U-component_of_WINDS"},"data":[0,0,0,0,0,0,0,0,0,0,0,0,0,0,0,0,0,0,0,0,0,0,0,0,0,0,0,0,0,0,0,0,0,0,0,0,0,0,0,0,0,0,0,0,0,0,0,0,0,0,0,0,0,0,0,0,0,0,1.1686,1.1684,0,1.1558,1.1557,1.1555,1.1585,1.1587,1.1589,1.1592,1.1459,1.1453,1.1448,0,0,0,0,0,0,0,0,0,0,0,0,0,1.1955,1.195,1.1686,1.1684,1.1683,1.1558,1.1557,1.1555,1.1584,1.1587,1.159,1.1593,1.1461,1.1454,1.1447,0,0,0,0,0,0,0,0,0,0,0,0,0,1.1834,1.1949,1.1686,1.1682,1.1681,1.1559,1.1557,1.1555,1.1583,1.1587,1.1591,1.1594,1.1463,1.1455,1.1446,1.1319,0,0,1.1419,1.1416,0,0,0,0,0,0,0,0,1.1841,1.1824,1.1684,1.1682,1.168,1.1591,1.1603,1.1476,1.1583,1.162,1.1592,1.1596,1.15,1.1488,1.1456,1.1313,1.1308,1.1419,1.1413,1.141,1.1407,0,0,0,0,0,0,0,1.1849,1.183,1.1635,1.1682,1.168,1.1687,1.1674,1.1579,1.1541,1.1617,1.1619,1.1604,1.1499,1.1465,1.1453,1.1306,1.1419,1.1411,1.1406,1.1402,1.1058,1.1055,0,0,0,0,0,0,1.186,1.1837,1.1639,1.1631,1.1771,1.1679,1.1665,1.1616,1.1542,1.1535,1.1601,1.1606,1.1478,1.1464,1.1449,1.13,1.141,1.1402,1.1397,1.1062,1.1057,1.1053,0,0,0,0,0,0,1.1865,1.1842,1.1644,1.1735,1.171,1.1671,1.1616,1.1612,1.1577,1.153,1.1523,1.1572,1.148,1.1461,1.1353,1.1296,1.1398,1.139,1.1067,1.1061,1.1055,1.0998,0,0,0,0,0,0,1.1873,1.1844,1.1794,1.1733,1.1705,1.155,1.1612,1.1606,1.1562,1.1567,1.1501,1.1494,1.1481,1.1366,1.1344,1.1285,1.1383,1.1072,1.1064,1.1057,1.1005,1.0991,1.0979,0,0,0,0,0,1.1882,1.1782,1.1792,1.1768,1.1643,1.1546,1.153,1.1519,1.1557,1.1508,1.1479,1.1496,1.1305,1.1354,1.133,1.1268,1.1075,1.1066,1.1058,1.1011,1.0994,1.098,0,0,0,0,0,0,1.1835,1.1773,1.1784,1.166,1.1609,1.1552,1.1489,1.15,1.1436,1.1443,1.1431,1.1416,1.1307,1.1276,1.1332,1.1145,1.1196,1.1182,1.1169,1.1152,1.1139,1.115,1.1376,0,0,0,0,0,1.1811,1.1738,1.1687,1.1583,1.1557,1.1528,1.1485,1.1481,1.1427,1.1405,1.1367,1.1314,1.1243,1.1195,1.1126,1.1001,1.0989,1.0947,1.0934,1.0923,1.0912,1.0848,1.083,1.1024,1.1024,1.1024,0,0,1.1758,1.1716,1.167,1.1573,1.1533,1.1459,1.1509,1.1427,1.1373,1.1392,1.1289,1.126,1.12,1.1084,1.1031,1.1055,1.0856,1.0912,1.0904,1.0898,1.0837,1.0819,1.0803,1.1018,1.1019,1.102,0,0,1.1627,1.1585,1.1497,1.1456,1.1396,1.1377,1.1356,1.1298,1.128,1.1177,1.1192,1.1127,1.1002,1.0961,1.0923,1.0781,1.0795,1.0758,1.0691,1.0629,1.0614,1.06,1.0553,1.0536,1.0747,1.0746,1.0746,0,1.1569,1.1458,1.1449,1.1368,1.1327,1.1343,1.1255,1.1215,1.1134,1.1106,1.1134,1.0983,1.0943,1.082,1.0786,1.0753,1.0731,1.0766,1.0617,1.0603,1.059,1.0546,1.0527,1.0743,1.0743,1.0743,1.0744,0,1.1393,1.1317,1.1252,1.1177,1.1128,1.1043,1.1022,1.0974,1.0975,1.0955,1.0852,1.0805,1.073,1.07,1.0698,1.0577,1.0595,1.062,1.0672,1.0568,1.0526,1.0508,1.0737,1.0739,1.074,1.0741,0,0,1.1226,1.1151,1.1127,1.1096,1.1032,1.0972,1.089,1.0818,1.0778,1.0722,1.0655,1.0552,1.0576,1.0534,1.0528,1.0474,1.0369,1.0506,1.0505,1.0485,1.0238,1.0222,1.0202,1.0378,1.0375,1.0372,1.0244,0,1.1091,1.0947,1.0939,1.0808,1.0739,1.0756,1.0685,1.0639,1.0618,1.0557,1.0534,1.0463,1.0498,1.0474,1.042,1.0393,1.032,1.0402,1.0317,1.0314,1.0335,1.0179,1.016,1.0041,1.0227,1.0224,1.0222,0,1.0914,1.0857,1.072,1.0671,1.0642,1.0577,1.0514,1.0454,1.0404,1.0393,1.0348,1.0352,1.0269,1.0323,1.0211,1.0267,1.0232,1.0214,1.0209,1.0202,1.0264,1.0171,1.0003,0.9986,1.0196,1.0198,1.02,0,1.0811,1.0699,1.0604,1.0576,1.0515,1.047,1.0443,1.0396,1.0355,1.0298,1.0272,1.0206,1.0171,1.012,1.0107,1.0147,0.9997,1.0048,0.9987,0.9988,0.9956,0.9959,0.9783,0.9929,0.9929,0.9929,0.993,0,1.0663,1.0579,1.0558,1.0499,1.0408,1.04,1.0309,1.0285,1.0244,1.0182,1.0191,1.0134,1.0119,1.0059,1.0047,0.9959,0.9941,0.9932,0.9931,0.9933,0.9934,0.9911,0.992,0.9925,0.9926,0.9927,0.9927,0,1.0532,1.0514,1.0412,1.0364,1.0351,1.0285,1.0245,1.019,1.0172,1.0095,1.0076,1.0047,0.9978,0.996,0.9875,0.9868,0.9765,0.9769,0.9782,0.9783,0.9725,0.9732,0.953,0.9505,0.9664,0.9663,0.9662,0,1.0439,1.0376,1.0323,1.0284,1.0255,1.019,1.015,1.014,1.0098,1.0038,0.9991,0.9923,0.9868,0.9756,0.9728,0.9665,0.967,0.9604,0.9661,0.9667,0.9674,0.9679,0.9674,0.9594,0.9592,0.9591,0.959,0,1.0279,1.0275,1.0216,1.0155,1.0107,1.0058,1.0012,0.9979,0.9963,0.9915,0.9845,0.9803,0.9719,0.9653,0.959,0.9562,0.9574,0.9572,0.9555,0.9558,0.957,0.9567,0.9756,0.9577,0.9578,0.9579,0.958,0.958,1.0167,1.0114,1.007,1.0005,0.997,0.9928,0.9875,0.9853,0.9794,0.9727,0.9725,0.965,0.9605,0.9522,0.9491,0.9433,0.9453,0.9428,0.9422,0.9417,0.9414,0.9577,0.9421,0.9421,0.9422,0.9422,0.9422,0,1.0011,0.9984,0.9925,0.9862,0.9812,0.9829,0.9779,0.9737,0.9671,0.9628,0.9576,0.9498,0.9434,0.9403,0.934,0.93,0.9305,0.9285,0.9289,0.9283,0.9397,0.942,0.9283,0.9283,0.9283,0.9283,0.9283,0.9283,0.9923,0.9836,0.9827,0.9723,0.9697,0.9625,0.9596,0.9558,0.9525,0.9438,0.9386,0.9366,0.9329,0.9265,0.9209,0.9201,0.9179,0.9157,0.9153,0.926,0.9274,0.9288,0.9309,0.9152,0.9152,0.9044,0.9043,0.9043]},{"header":{"parameterUnit":"m.s-1","parameterCategory":1,"la1":30.2991,"la2":30.254,"lo1":-89.0895,"lo2":-89.0444,"dy":0.0017,"dx":0.0017,"nx":28,"ny":28,"refTime":"2024-02-28T09:00:00:Z","depth":0,"parameterNumber":3,"parameterNumberName":"V-component_of_WINDS"},"data":[0,0,0,0,0,0,0,0,0,0,0,0,0,0,0,0,0,0,0,0,0,0,0,0,0,0,0,0,0,0,0,0,0,0,0,0,0,0,0,0,0,0,0,0,0,0,0,0,0,0,0,0,0,0,0,0,0,0,3.1156,3.1156,0,3.1144,3.1144,3.1144,3.1198,3.12,3.1201,3.1203,3.1186,3.1184,3.1182,0,0,0,0,0,0,0,0,0,0,0,0,0,3.1221,3.1219,3.1156,3.1156,3.1155,3.1144,3.1144,3.1144,3.1198,3.12,3.1202,3.1203,3.1186,3.1184,3.1182,0,0,0,0,0,0,0,0,0,0,0,0,0,3.1199,3.1219,3.1156,3.1181,3.1183,3.1144,3.1144,3.1144,3.1197,3.12,3.1202,3.1204,3.1187,3.1184,3.1181,3.1116,0,0,3.1172,3.1171,0,0,0,0,0,0,0,0,3.12,3.1197,3.1177,3.1179,3.1182,3.1175,3.1161,3.1134,3.1197,3.1192,3.1203,3.1205,3.118,3.1178,3.117,3.1115,3.1114,3.1172,3.117,3.1169,3.1168,0,0,0,0,0,0,0,3.1202,3.1197,3.1151,3.1177,3.118,3.1192,3.1191,3.1156,3.1172,3.1192,3.1196,3.1194,3.1181,3.1173,3.117,3.1114,3.1172,3.117,3.1168,3.1167,3.1007,3.1005,0,0,0,0,0,0,3.12,3.1198,3.1151,3.1151,3.1197,3.1189,3.1188,3.1175,3.1173,3.1175,3.1192,3.1197,3.1177,3.1173,3.117,3.1095,3.1169,3.1166,3.1165,3.101,3.1007,3.1004,0,0,0,0,0,0,3.1202,3.1196,3.1152,3.1176,3.1171,3.1185,3.1169,3.1173,3.1165,3.1173,3.1176,3.1181,3.1178,3.1174,3.113,3.1095,3.1165,3.1162,3.1013,3.1009,3.1005,3.0944,0,0,0,0,0,0,3.1203,3.1196,3.1172,3.1175,3.117,3.1113,3.1167,3.1171,3.116,3.1166,3.1163,3.1165,3.118,3.1134,3.1127,3.1092,3.116,3.1016,3.1011,3.1007,3.0949,3.0938,3.0929,0,0,0,0,0,3.1205,3.1153,3.117,3.1164,3.114,3.1111,3.1108,3.1128,3.1157,3.1133,3.1139,3.1165,3.11,3.1129,3.1121,3.1085,3.1018,3.1012,3.1007,3.0953,3.094,3.0929,0,0,0,0,0,0,3.1143,3.1154,3.1173,3.112,3.1115,3.112,3.109,3.1113,3.1097,3.1103,3.1127,3.1126,3.1078,3.1077,3.1109,3.1023,3.1064,3.1057,3.1026,3.1014,3.1004,3.1005,3.1158,0,0,0,0,0,3.1123,3.11,3.111,3.1063,3.1059,3.1075,3.1063,3.1079,3.1073,3.1071,3.1073,3.1065,3.1044,3.1028,3.1008,3.0949,3.095,3.0921,3.0911,3.0903,3.0896,3.0867,3.0855,3.0986,3.0986,3.0986,0,0,3.1082,3.1085,3.1068,3.105,3.1048,3.1023,3.1072,3.1043,3.1024,3.1065,3.1025,3.1027,3.102,3.0968,3.0946,3.0966,3.086,3.0896,3.0889,3.0887,3.086,3.0848,3.0837,3.0982,3.0982,3.0983,0,0,3.0994,3.0994,3.0956,3.0953,3.095,3.0961,3.0951,3.0954,3.0958,3.0918,3.0949,3.0927,3.0888,3.0883,3.0875,3.0788,3.0812,3.078,3.0729,3.07,3.069,3.0681,3.0652,3.0641,3.0774,3.0773,3.0773,0,3.0943,3.0908,3.0932,3.0902,3.0894,3.0932,3.0894,3.0889,3.0878,3.0871,3.0895,3.0849,3.0847,3.0796,3.0775,3.0767,3.0758,3.0781,3.069,3.0681,3.0673,3.0645,3.0634,3.077,3.077,3.0771,3.0771,0,3.0846,3.0821,3.079,3.0782,3.077,3.0735,3.0754,3.0739,3.0756,3.0765,3.0725,3.0724,3.0706,3.0695,3.071,3.0647,3.066,3.0686,3.0727,3.0656,3.0631,3.062,3.0764,3.0766,3.0767,3.0768,0,0,3.0717,3.0726,3.0714,3.0712,3.0712,3.0693,3.066,3.0645,3.0632,3.0623,3.0597,3.0565,3.059,3.0581,3.0597,3.0571,3.0505,3.0601,3.0601,3.0584,3.0437,3.0418,3.0405,3.0521,3.0519,3.0517,3.0438,0,3.0633,3.058,3.0602,3.0547,3.0525,3.0562,3.0534,3.0531,3.0538,3.052,3.0528,3.0506,3.0539,3.0535,3.0511,3.0518,3.0476,3.0524,3.0497,3.0495,3.0499,3.0392,3.0371,3.0297,3.0428,3.0426,3.0425,0,3.0527,3.0518,3.0461,3.0468,3.046,3.0434,3.0423,3.0405,3.0403,3.041,3.0401,3.0423,3.0392,3.0433,3.039,3.0422,3.0412,3.0414,3.0412,3.0411,3.0457,3.0389,3.0273,3.0262,3.0409,3.041,3.0411,0,3.0442,3.0414,3.0378,3.0375,3.0381,3.0363,3.0364,3.0364,3.0354,3.0344,3.0338,3.0323,3.0315,3.0303,3.032,3.0348,3.0275,3.0317,3.0281,3.028,3.0264,3.0265,3.0146,3.0255,3.0255,3.0256,3.0256,0,3.0346,3.031,3.034,3.0318,3.0279,3.0304,3.0265,3.027,3.027,3.0249,3.0279,3.0258,3.0282,3.0263,3.0276,3.024,3.0235,3.0241,3.0245,3.0239,3.0238,3.0233,3.0239,3.0253,3.0253,3.0254,3.0254,0,3.0244,3.0262,3.0225,3.0236,3.0237,3.0208,3.0217,3.0196,3.0207,3.018,3.0175,3.019,3.017,3.0187,3.0166,3.0175,3.0127,3.0138,3.0129,3.0132,3.0096,3.01,2.997,2.9955,3.0073,3.0072,3.0071,0,3.0182,3.0156,3.0165,3.0154,3.0155,3.0136,3.0127,3.0151,3.0141,3.0137,3.0117,3.01,3.0088,3.0054,3.0063,3.0048,3.006,3.0015,3.0057,3.0053,3.0061,3.0063,3.0061,3.0007,3.0005,3.0004,3.0003,0,3.0072,3.0083,3.007,3.0061,3.005,3.0043,3.0039,3.0027,3.0053,3.0039,3.002,3.0011,2.9992,2.9975,2.9964,2.9964,2.9988,2.999,2.9981,2.9976,2.9972,2.9976,3.0107,2.9993,2.9994,2.9995,2.9995,2.9996,2.9989,2.9969,2.9973,2.9958,2.9958,2.9953,2.9936,2.9945,2.993,2.9919,2.9933,2.9911,2.991,2.9898,2.9896,2.9878,2.9896,2.9883,2.988,2.9876,2.9872,2.9974,2.9876,2.9876,2.9876,2.9876,2.9877,0,2.9882,2.9887,2.9873,2.9868,2.9856,2.9882,2.9878,2.9867,2.9847,2.9846,2.9834,2.9814,2.9798,2.9807,2.9793,2.9777,2.9788,2.9773,2.9775,2.9775,2.9855,2.9865,2.9765,2.9765,2.9765,2.9765,2.9765,2.9765,2.9825,2.9793,2.9805,2.9773,2.9778,2.9758,2.9754,2.975,2.975,2.9726,2.9714,2.9721,2.9724,2.9711,2.9698,2.9701,2.9695,2.9677,2.9683,2.9758,2.9769,2.978,2.979,2.9675,2.9675,2.9605,2.9605,2.9604]}]]